Location: Endfield
(51.6667°N, 0.0667°W)
Time: 13:04:57
(UTC+00:00)

NOSS 3-1 (A) - Pass Details

Date: 19 May 2024
Orbit: 660 x 1550 km, 63.4° (Epoch: 15 May)

Event Time Altitude Azimuth Distance (km) Brightness Sun altitude
Rises 20:29:14 0° 314° (NW) 3,777 9.6 -5.2°
Reaches altitude 10° 20:31:38 10° 313° (NW) 2,939 7.9 -5.5°
Maximum altitude 20:38:45 73° 231° (SW) 1,323 4.3 -6.3°
Drops below altitude 10° 20:47:26 10° 149° (SSE) 3,549 5.8 -7.3°
Enters shadow 20:48:11 - 148° (SSE) 3,799 5.9 -7.3°
